ASC 2

operational
NORAD ID: 21227 Int'l Des: 1991-028 Owner: CONTG Country: US
HEOCIRCULAR

ASC 2について

説明を読み込み中...

リアルタイム位置

3D地球を読み込み中...

次回通過

高度履歴

Altitude vs Time

uPlot chart will show altitude changes over time

軌道要素

1 21227U 91028A 26062.75226161 -.00000307 00000-0 00000+0 0 9990
2 21227 13.6660 14.6239 0007944 309.0329 225.6137 0.99567601125325
Epoch: Mar 3, 2026 • Age: 28 hours

現在のステータス

高度 35953.1 km
速度 3.07 km/s
衛星直下点 -9.10°S, 116.76°E
打ち上げ日 Apr 13, 1991
運用期間 34.8 years
タイプ other

技術仕様

分類 Payload
質量 705.00 kg
乾燥質量 550.00 kg
総質量 1352.00 kg
長さ 2.00 m
直径 1.30 m
スパン 14.00 m
形状 Box + 2 Pan
製造者 GEEW
バスタイプ AS3000
フェーズステータス Renamed
所有者/国 CONTG/US

大規模コンステレーション

Loading constellations...